Flag for USA

Past Weather in 35°12'07"N, 89°48'42"W, USA — Yesterday and Last 2 Weeks

Now
55 °F

Partly sunny.


Feels Like: 55 °F
Forecast: 69 / 54 °F
Wind: No wind

Location: Memphis International Airport

Current Time: Apr 4, 2020 at 8:10:22 am

Latest Report: Apr 4, 2020 at 6:54 am


Visibility: 9 mi

Pressure: 30.03 "Hg

Humidity: 93%

Dew Point: 53 °F

Location of 35°12'07"N, 89°48'42"WLocation

Past Weather in 35°12'07"N, 89°48'42"W — Graph

°F

35°12'07"N, 89°48'42"W Temperature Yesterday

Maximum temperature yesterday: 72 °F (at 11:54 am)
Minimum temperature yesterday: 56 °F (at 11:54 pm)
Average temperature yesterday: 64 °F

High & Low Weather Summary for the Past Weeks

 TemperatureHumidityPressure
High84 °F (Mar 26, 1:54 pm)100% (Mar 23, 12:02 am)30.47 "Hg (Mar 23, 12:02 am)
Low43 °F (Mar 21, 7:54 am)31% (Apr 2, 4:54 pm)29.73 "Hg (Mar 27, 2:54 am)
Average60 °F75%30.02 "Hg
* Reported Mar 20 6:22 am — Apr 4 6:54 am, 35°12'07"N, 89°48'42"W. Weather by CustomWeather, © 2020

Note: Actual official high and low records may vary slightly from our data, if they occured in-between our weather recording intervals... More about our weather records

35°12'07"N, 89°48'42"W Weather History for the Previous 24 Hours

Scroll right to see more
 ConditionsComfort  
Time TempWeatherWind HumidityBarometerVisibility
6:54 am
Sat, Apr 4
55 °FPartly sunny.No wind93%30.03 "Hg9 mi
5:54 am54 °FOvercast.No wind93%30.02 "Hg10 mi
4:54 am54 °FPartly cloudy.No wind93%30.01 "Hg10 mi
3:54 am54 °FPassing clouds.No wind93%30.00 "Hg10 mi
2:54 am55 °FPassing clouds.No wind90%30.01 "Hg10 mi
1:54 am55 °FPassing clouds.No wind90%30.01 "Hg10 mi
12:54 am56 °FPassing clouds.5 mph87%30.01 "Hg10 mi
11:54 pm
Fri, Apr 3
56 °FPassing clouds.No wind87%30.02 "Hg10 mi
10:54 pm61 °FPassing clouds.No wind72%30.01 "Hg10 mi
9:54 pm63 °FPassing clouds.5 mph70%30.01 "Hg10 mi
8:54 pm63 °FPassing clouds.5 mph70%30.01 "Hg10 mi
7:54 pm64 °FPartly cloudy.5 mph70%29.99 "Hg10 mi
6:54 pm65 °FOvercast.5 mph68%30.00 "Hg10 mi
5:54 pm66 °FMostly cloudy.8 mph68%29.99 "Hg10 mi
4:54 pm67 °FOvercast.5 mph63%29.97 "Hg10 mi
3:54 pm67 °FPartly sunny.8 mph61%29.98 "Hg10 mi
2:54 pm67 °FLight rain. Mostly cloudy.6 mph57%29.99 "Hg10 mi
1:54 pm69 °FMostly cloudy.8 mph49%30.02 "Hg10 mi
12:54 pm70 °FPartly sunny.13 mph51%30.03 "Hg10 mi
11:54 am72 °FBroken clouds.6 mph43%30.04 "Hg10 mi
10:54 am70 °FBroken clouds.5 mph44%30.06 "Hg10 mi
9:54 am67 °FBroken clouds.6 mph49%30.06 "Hg10 mi
8:54 am62 °FBroken clouds.No wind54%30.05 "Hg10 mi
Weather by CustomWeather, © 2020

See weather overview

Advertising